User: anonymous   Login
Location: Unspecified
(0.0000°N, 0.0000°E)
Time: 00:14:27
(UTC+00:00)
Language:

Oscar 14 - Orbit

View from above orbital plane
View from above orbital plane
View from above satellite
View from above satellite

Ground track
Ground track

The orbit data is extracted from the following two-line orbital elements,

1 20437U 90005B   17328.51477166 +.00000030 +00000-0 +27837-4 0  9992
2 20437 098.6790 272.2885 0011681 067.6551 039.0435 14.32273940453920
Epoch (UTC): 24 November 2017 12:21:16
Eccentricity: 0.0011681
inclination: 98.6790°
perigee height: 776 km
apogee height: 792 km
right ascension of ascending node: 272.2885°
argument of perigee: 67.6551°
revolutions per day: 14.32273940
mean anomaly at epoch: 39.0435°
orbit number at epoch: 45392

The dashed part of the orbit path shows where the satellite is in the earth's shadow,  

DLR